Wind_Speed
15 15 15 16 17 17 19 19 18 17 15 14 13 12 10 9 8 6 5 3 2 1 1 2 4 5 7 8 10 12 13 14 15 15 16 16 16 16 16 16 16 16 16
16 16 15 17 18 19 20 20 19 19 17 16 15 13 12 10 9 8 7 5 4 4 4 4 6 8 10 11 12 14 15 17 17 18 18 18 18 18 18 17 17 17 18
19 18 17 17 19 20 21 21 21 20 18 17 15 14 14 13 12 10 9 8 7 7 8 8 9 10 12 13 14 16 17 18 19 20 20 20 20 20 20 19 18 17 17
21 19 18 18 20 20 19 20 20 20 20 19 18 16 15 14 14 13 12 11 11 11 11 11 11 12 13 15 15 17 18 19 20 21 22 22 22 21 21 21 21 21 20
22 19 18 19 21 21 20 19 20 22 21 21 20 18 16 16 15 14 13 13 12 13 13 13 13 13 15 16 16 18 19 20 21 22 21 21 21 21 22 23 23 22 22
22 20 20 20 21 22 23 23 23 22 23 23 21 19 18 16 16 15 15 14 14 15 15 14 14 15 16 17 18 19 20 21 21 22 21 21 21 21 21 22 22 22 22
25 24 22 20 21 22 23 24 25 24 23 23 22 21 20 20 18 18 16 16 16 17 17 17 17 16 17 19 19 20 20 21 22 22 22 22 22 22 22 22 23 24 24
28 25 22 20 22 24 26 26 25 24 24 24 24 24 23 22 21 19 19 18 18 18 18 19 19 19 19 20 20 22 22 22 23 22 22 22 22 23 23 23 23 24 24
28 25 23 21 23 25 26 26 25 26 26 25 25 25 25 25 22 22 22 20 20 20 20 20 20 21 22 22 22 23 23 23 23 22 22 21 22 22 22 23 24 25 26
28 25 24 23 23 24 25 25 26 27 28 27 27 25 26 25 25 24 23 22 22 22 23 23 23 23 24 23 24 24 24 23 22 22 22 22 22 22 22 22 24 25 26
27 27 26 24 22 22 24 24 27 29 29 28 27 26 26 26 26 26 25 24 23 24 24 24 25 25 25 25 26 26 26 25 24 23 22 21 21 22 23 26 27 28 29
28 28 27 24 21 21 22 22 23 26 27 27 27 26 26 26 26 26 25 26 26 24 23 25 26 27 27 26 26 26 25 25 24 22 20 20 23 25 27 29 31 33 34
27 29 28 25 22 20 20 22 23 24 24 25 26 25 25 25 26 25 25 26 26 24 23 25 27 27 27 27 27 25 25 25 23 22 24 26 28 30 31 33 32 34 38
27 29 29 26 25 24 23 23 24 25 25 25 24 24 23 23 24 24 24 26 25 24 22 21 25 27 27 27 27 25 23 22 23 25 29 31 32 33 33 34 36 37 40
28 31 31 30 29 28 26 25 24 24 23 23 22 22 22 21 22 23 23 24 25 25 22 19 21 21 22 23 22 22 22 24 27 31 32 31 34 34 36 39 40 42 46
30 32 34 34 33 32 31 29 27 25 23 20 21 20 19 19 19 21 22 24 25 26 25 18 21 22 23 21 22 26 28 30 31 33 34 35 35 37 38 39 44 47 45
30 29 33 34 36 35 34 32 29 26 25 23 20 17 17 18 20 22 23 25 26 28 30 20 21 23 24 27 29 31 34 34 32 33 35 36 39 37 37 43 47 40 38
30 29 31 34 37 39 43 46 33 28 27 24 20 19 19 22 23 23 25 28 29 29 32 30 25 27 30 33 37 38 36 35 38 36 35 36 39 42 43 47 44 41 39
31 31 29 28 31 34 37 39 44 42 33 28 22 20 23 26 27 27 30 30 29 29 32 37 37 35 36 39 38 36 34 38 42 43 41 42 43 44 47 48 42 42 44
34 31 31 30 33 30 31 34 35 40 45 42 27 24 29 34 35 31 33 32 31 33 35 39 45 43 41 41 33 35 41 43 40 40 42 45 47 47 44 41 42 45 47
35 36 33 31 31 33 32 31 33 38 33 32 32 33 34 35 34 34 34 35 35 36 41 42 39 50 42 36 36 38 39 44 40 44 49 46 48 42 40 42 45 47 49
34 35 34 34 30 31 28 27 27 26 27 30 33 33 36 38 36 35 37 40 38 39 43 44 46 47 40 40 41 41 45 43 45 48 50 44 41 39 40 43 44 45 47
29 35 31 31 33 29 27 28 25 23 27 32 37 36 39 38 37 39 41 41 41 42 47 50 50 45 43 52 48 47 45 43 50 52 46 39 40 40 41 43 43 43 44
26 25 30 30 34 29 31 34 34 33 36 35 35 39 38 42 44 40 42 43 42 46 46 42 48 44 48 49 44 40 44 50 50 45 44 44 45 45 44 43 43 42 42
30 25 24 30 33 35 35 35 36 39 37 39 36 36 38 45 45 43 45 44 39 38 37 41 43 51 45 39 44 45 45 40 38 40 42 44 45 47 47 45 40 40 40
36 35 35 36 34 36 36 39 41 42 41 40 41 41 42 45 47 46 45 44 33 36 36 40 39 38 45 50 42 38 36 36 38 40 42 43 44 48 48 44 40 40 41
Wind_Direction
211 217 215 214 211 210 203 205 202 202 201 203 202 203 201 194 177 189 187 187 160 132 17 12 358 343 340 342 342 340 336 334 332 330 330 331 331 330 327 327 329 330 333
219 224 232 229 220 211 209 208 207 208 207 209 212 213 214 214 207 208 217 226 242 267 294 312 315 319 323 326 325 326 324 321 322 321 321 321 322 323 322 320 320 322 325
222 227 234 235 216 217 215 213 212 213 214 216 218 221 223 224 228 228 235 249 257 270 279 289 298 307 311 313 317 317 317 316 316 316 317 318 318 318 317 317 315 314 315
224 227 234 227 218 217 215 218 217 219 220 222 224 226 228 233 237 242 246 244 258 269 276 286 292 300 305 310 312 311 311 312 314 316 319 318 318 317 316 316 316 313 309
225 232 235 231 222 223 223 223 223 223 223 226 227 229 230 235 241 246 251 259 263 268 275 285 291 296 301 304 306 307 310 312 315 317 317 316 316 317 317 317 315 313 310
223 231 233 233 229 230 231 231 231 229 228 229 230 234 236 239 242 249 253 260 268 274 281 281 287 294 297 300 302 305 309 312 315 317 316 315 315 315 315 314 312 310 308
224 227 230 229 231 233 234 233 231 231 233 232 234 235 239 241 244 250 256 261 267 274 279 285 289 290 292 296 301 303 305 310 313 314 315 315 315 315 314 315 313 312 312
226 230 229 227 232 233 233 233 231 232 235 234 235 237 241 243 247 253 257 264 271 276 281 284 287 288 291 295 297 299 304 309 310 311 312 312 312 311 310 309 308 307 307
228 231 234 230 233 235 235 235 234 234 235 238 240 242 246 248 250 256 261 266 273 279 280 283 285 289 292 294 295 298 302 306 307 310 311 311 311 309 308 308 308 307 308
231 234 237 237 238 237 236 235 234 235 236 239 243 246 248 251 254 255 261 267 273 278 281 285 288 290 290 292 294 296 299 302 303 305 307 308 307 305 306 309 311 312 312
231 233 238 239 239 237 235 235 235 237 238 240 242 244 249 253 256 261 264 266 271 278 282 285 287 288 289 292 294 296 300 304 305 305 303 304 305 307 311 311 309 308 307
229 233 236 238 239 238 237 236 236 237 240 242 241 245 250 253 256 261 266 272 275 276 280 286 287 290 293 295 295 298 299 298 298 300 303 302 302 305 309 310 309 312 311
233 234 234 237 240 240 241 238 237 239 241 243 246 244 248 254 259 262 268 271 274 278 282 284 287 290 292 292 292 294 293 294 297 299 301 301 301 304 306 306 305 309 312
233 234 235 238 241 241 238 239 239 240 242 244 249 252 253 256 260 263 267 272 276 277 278 283 284 287 287 288 288 289 287 288 294 298 297 298 300 301 299 303 305 302 305
231 231 235 239 240 243 244 244 244 244 244 248 250 253 256 258 263 268 271 275 277 279 281 284 281 274 276 279 276 275 278 282 288 290 293 295 298 299 298 303 302 302 306
235 237 238 241 242 247 249 249 248 250 249 250 252 254 258 264 268 272 276 279 282 285 286 279 268 268 268 273 275 277 279 280 284 285 291 292 295 298 296 300 302 301 304
239 243 240 242 243 248 248 249 249 250 253 247 244 249 259 264 269 274 278 281 284 286 287 277 270 271 272 278 279 283 282 284 284 287 290 291 294 297 292 300 306 304 305
240 243 244 244 244 246 254 241 243 246 250 245 241 244 258 268 275 280 284 285 283 282 283 282 275 276 272 278 282 284 281 287 288 292 296 295 299 299 302 307 305 306 307
239 241 241 242 248 257 267 256 238 235 238 233 245 255 265 275 279 283 282 283 284 280 280 284 287 281 280 283 279 283 279 285 287 290 299 301 302 305 305 303 301 303 305
239 244 247 249 252 262 258 244 246 247 244 239 243 249 263 272 271 274 277 282 284 283 286 283 296 286 284 283 290 281 280 289 294 294 300 300 304 302 301 298 299 301 303
239 242 245 245 252 242 249 245 248 259 246 235 238 253 260 265 270 273 275 276 279 283 282 283 294 295 287 285 281 285 285 290 298 296 294 297 300 297 295 297 300 304 305
238 238 242 247 245 241 249 243 235 231 231 243 251 256 261 263 265 267 271 277 280 275 282 284 282 285 273 279 282 276 286 291 296 298 295 298 295 296 299 301 303 304 304
247 243 236 247 242 246 242 242 249 246 250 252 254 258 262 267 266 270 273 277 278 277 283 279 282 283 278 272 272 278 282 298 300 298 296 295 294 297 300 303 305 305 303
247 252 236 239 239 245 238 239 240 256 255 257 258 259 260 265 269 278 276 278 280 281 280 281 286 278 278 277 286 287 296 292 288 291 293 296 297 301 303 304 304 303 301
238 246 259 245 240 241 240 244 247 255 250 250 256 260 261 271 264 273 270 277 274 268 283 285 291 285 281 288 297 288 287 285 289 291 294 296 298 299 301 302 303 302 303
237 240 243 248 244 245 244 246 249 256 257 259 263 265 265 266 271 274 269 271 264 282 292 293 288 283 284 289 289 285 289 290 291 292 293 297 300 301 300 301 305 307 306
Height
3155 3156 3159 3161 3163 3166 3168 3170 3172 3175 3176 3178 3179 3180 3182 3183 3186 3187 3188 3188 3188 3188 3189 3188 3189 3189 3189 3189 3188 3187 3186 3186 3185 3183 3181 3179 3178 3176 3174 3173 3172 3170 3169
3152 3154 3155 3158 3160 3163 3165 3167 3170 3172 3174 3177 3179 3180 3182 3183 3184 3186 3186 3187 3188 3188 3188 3188 3189 3189 3189 3188 3187 3186 3185 3184 3183 3181 3179 3177 3176 3174 3173 3171 3169 3168 3167
3149 3152 3153 3154 3158 3159 3162 3165 3168 3170 3173 3175 3177 3179 3181 3182 3183 3185 3186 3187 3188 3187 3187 3187 3187 3187 3187 3187 3186 3185 3183 3182 3180 3179 3177 3176 3174 3172 3170 3168 3166 3165 3163
3146 3149 3151 3152 3155 3157 3160 3163 3166 3169 3170 3173 3176 3178 3179 3181 3182 3183 3184 3186 3185 3186 3186 3186 3185 3185 3185 3185 3183 3182 3181 3179 3178 3176 3175 3173 3171 3169 3167 3165 3164 3162 3160
3143 3146 3147 3150 3153 3155 3158 3161 3164 3166 3168 3171 3173 3175 3176 3178 3180 3181 3182 3182 3183 3184 3184 3184 3183 3183 3182 3182 3180 3179 3178 3177 3175 3174 3172 3170 3168 3166 3164 3162 3160 3158 3156
3140 3143 3144 3146 3150 3152 3155 3158 3161 3163 3165 3167 3170 3173 3175 3175 3177 3178 3179 3180 3180 3181 3181 3181 3181 3180 3180 3179 3177 3176 3175 3174 3172 3170 3168 3166 3164 3162 3159 3158 3156 3154 3151
3135 3138 3140 3143 3145 3148 3151 3153 3156 3159 3162 3164 3167 3168 3171 3171 3173 3175 3176 3177 3178 3178 3178 3178 3178 3178 3177 3175 3174 3173 3171 3170 3168 3166 3164 3162 3160 3158 3155 3153 3151 3149 3147
3130 3133 3136 3140 3141 3143 3145 3148 3152 3155 3158 3160 3162 3164 3166 3169 3170 3171 3172 3173 3174 3174 3175 3175 3174 3173 3172 3172 3170 3169 3167 3166 3164 3162 3160 3157 3156 3154 3151 3149 3147 3144 3142
3126 3130 3132 3135 3137 3139 3141 3144 3147 3150 3153 3155 3158 3160 3162 3164 3166 3166 3169 3169 3170 3171 3171 3170 3169 3169 3168 3167 3166 3164 3162 3161 3159 3157 3155 3153 3151 3149 3146 3144 3141 3139 3137
3122 3126 3129 3131 3133 3135 3138 3140 3143 3145 3149 3151 3153 3155 3158 3160 3160 3163 3164 3165 3166 3166 3167 3166 3165 3164 3163 3162 3161 3159 3157 3156 3154 3152 3150 3148 3146 3143 3140 3138 3136 3134 3131
3119 3122 3125 3127 3129 3131 3134 3136 3138 3141 3142 3147 3148 3150 3153 3155 3156 3157 3159 3161 3161 3161 3161 3160 3159 3158 3158 3156 3155 3154 3152 3151 3149 3147 3144 3142 3141 3139 3137 3135 3132 3129 3126
3114 3117 3120 3122 3126 3127 3130 3132 3134 3136 3138 3140 3144 3146 3148 3150 3151 3152 3154 3154 3155 3157 3156 3155 3154 3153 3152 3151 3149 3148 3147 3144 3143 3141 3140 3138 3136 3134 3132 3129 3126 3124 3120
3109 3112 3115 3119 3122 3123 3126 3128 3130 3132 3134 3136 3139 3142 3143 3145 3146 3147 3148 3149 3149 3151 3150 3149 3147 3147 3146 3144 3143 3143 3141 3139 3137 3135 3133 3131 3129 3127 3124 3121 3119 3116 3112
3104 3108 3111 3114 3118 3119 3122 3124 3126 3128 3130 3132 3134 3136 3138 3140 3140 3141 3142 3143 3142 3143 3145 3145 3142 3141 3140 3139 3138 3137 3135 3133 3132 3130 3128 3126 3123 3121 3118 3115 3112 3108 3104
3098 3102 3105 3109 3113 3115 3117 3120 3122 3124 3126 3128 3130 3131 3133 3134 3135 3136 3136 3136 3136 3137 3139 3140 3138 3136 3135 3134 3132 3131 3130 3129 3128 3125 3122 3119 3116 3113 3111 3107 3103 3098 3094
3092 3095 3099 3103 3106 3110 3111 3114 3117 3120 3122 3124 3126 3127 3128 3129 3130 3131 3131 3131 3131 3130 3131 3135 3133 3131 3130 3129 3127 3126 3125 3123 3122 3119 3116 3113 3109 3106 3103 3099 3095 3090 3086
3086 3089 3093 3096 3100 3103 3105 3108 3111 3114 3116 3118 3120 3121 3123 3123 3124 3126 3126 3126 3125 3123 3122 3129 3127 3126 3124 3123 3121 3118 3117 3115 3113 3110 3108 3104 3102 3098 3094 3090 3084 3079 3076
3079 3083 3086 3090 3094 3097 3097 3098 3104 3106 3110 3113 3114 3115 3118 3118 3119 3119 3119 3120 3119 3118 3115 3116 3121 3120 3118 3116 3113 3110 3108 3105 3104 3100 3099 3096 3093 3089 3084 3078 3074 3070 3066
3072 3076 3079 3084 3086 3088 3088 3089 3093 3098 3102 3105 3107 3109 3113 3111 3113 3112 3113 3113 3112 3111 3110 3107 3108 3111 3109 3106 3104 3101 3099 3097 3094 3089 3089 3086 3082 3079 3073 3068 3064 3060 3057
3065 3069 3073 3076 3078 3080 3081 3083 3087 3090 3092 3096 3101 3102 3105 3105 3106 3106 3106 3105 3104 3103 3102 3100 3098 3096 3095 3094 3093 3092 3091 3088 3086 3082 3079 3076 3071 3067 3063 3059 3055 3051 3047
3059 3062 3065 3068 3071 3072 3076 3077 3080 3082 3085 3089 3093 3095 3097 3097 3097 3097 3097 3096 3096 3095 3093 3091 3090 3089 3087 3083 3081 3081 3078 3076 3076 3073 3071 3067 3062 3057 3053 3049 3045 3041 3036
3050 3054 3057 3060 3064 3066 3069 3071 3074 3076 3079 3082 3085 3086 3087 3088 3087 3088 3088 3087 3087 3086 3085 3083 3081 3078 3075 3074 3072 3069 3068 3066 3066 3061 3057 3057 3051 3047 3044 3039 3036 3031 3025
3043 3046 3049 3052 3056 3059 3063 3066 3068 3070 3073 3075 3076 3075 3077 3077 3079 3079 3079 3079 3078 3076 3076 3073 3070 3068 3066 3063 3058 3057 3057 3055 3051 3047 3044 3043 3040 3037 3033 3029 3024 3019 3013
3036 3038 3041 3044 3048 3051 3055 3057 3060 3062 3064 3065 3066 3067 3067 3068 3068 3069 3069 3068 3067 3066 3063 3061 3059 3056 3054 3052 3050 3048 3047 3045 3042 3037 3034 3032 3028 3026 3022 3018 3014 3009 3003
3028 3031 3034 3037 3039 3042 3045 3048 3051 3052 3052 3054 3054 3055 3057 3058 3058 3058 3057 3056 3054 3053 3052 3051 3048 3046 3043 3042 3040 3036 3034 3032 3030 3026 3023 3021 3018 3014 3011 3007 3004 2998 2993
3020 3023 3025 3028 3031 3033 3035 3039 3041 3042 3044 3044 3045 3045 3046 3048 3046 3046 3044 3043 3039 3039 3039 3040 3038 3036 3034 3030 3028 3026 3023 3021 3019 3016 3014 3012 3007 3000 2998 2994 2992 2986 2981